Location: Unspecified
(0.0000°N, 0.0000°E)
Time: 00:31:31
(UTC+00:00)

Hubble Space Telescope - Pass Details

Date: 23 June 2017
Orbit: 538 x 542 km, 28.5° (Epoch: 19 August)

Event Time Altitude Azimuth Distance (km) Brightness Sun altitude
Exits shadow 05:17:34 - 285° (WNW) 1,963 3.2 -10.2°
Reaches altitude 10° 05:18:14 10° 291° (WNW) 1,786 3.0 -10.1°
Maximum altitude 05:20:54 17° 332° (NNW) 1,415 2.9 -9.5°
Drops below altitude 10° 05:23:35 10° 12° (NNE) 1,784 4.0 -8.9°
Sets 05:26:31 0° 34° (NNE) 2,673 5.4 -8.2°
